TimeEDT,TemperatureF,Dew PointF,Humidity,Sea Level PressureIn,VisibilityMPH,Wind Direction,Wind SpeedMPH,Gust SpeedMPH,PrecipitationIn,Events,Conditions,WindDirDegrees,DateUTC
12:53 AM,34.0,21.9,61,29.91,10.0,WNW,4.6,-,N/A,,Overcast,300,2013-10-23 04:53:00
1:53 AM,35.1,21.0,57,29.89,10.0,WNW,8.1,-,0.00,,Overcast,290,2013-10-23 05:53:00
2:53 AM,35.1,21.9,59,29.88,10.0,West,8.1,-,N/A,,Overcast,280,2013-10-23 06:53:00
3:53 AM,36.0,25.0,64,29.87,10.0,West,12.7,-,0.00,Snow,Light Snow,280,2013-10-23 07:53:00
4:50 AM,35.6,26.6,70,29.83,2.5,NW,19.6,28.8,0.01,Snow,Light Snow,310,2013-10-23 08:50:00
4:53 AM,33.1,28.0,82,29.87,1.2,WNW,15.0,28.8,0.01,Snow,Light Snow,300,2013-10-23 08:53:00
4:56 AM,33.8,28.4,81,29.83,0.8,WNW,15.0,28.8,0.00,Snow,Light Snow,290,2013-10-23 08:56:00
5:02 AM,32.0,28.4,87,29.82,1.0,West,10.4,-,0.00,Snow,Light Snow,270,2013-10-23 09:02:00
5:08 AM,32.0,28.4,87,29.82,3.0,West,10.4,-,0.00,Snow,Light Snow,270,2013-10-23 09:08:00
5:22 AM,32.0,28.4,87,29.82,9.0,West,10.4,-,0.00,,Overcast,260,2013-10-23 09:22:00
5:53 AM,32.0,27.0,82,29.85,6.0,WSW,8.1,-,0.01,Snow,Light Snow,250,2013-10-23 09:53:00
6:53 AM,33.1,26.1,75,29.85,9.0,West,16.1,26.5,0.00,,Overcast,270,2013-10-23 10:53:00
7:10 AM,33.8,28.4,81,29.81,10.0,West,12.7,-,N/A,,Overcast,270,2013-10-23 11:10:00
7:33 AM,33.8,28.4,81,29.81,8.0,NW,9.2,-,0.00,Snow,Light Snow,310,2013-10-23 11:33:00
7:40 AM,33.8,28.4,81,29.81,4.0,NNW,15.0,23.0,0.00,Snow,Light Snow,330,2013-10-23 11:40:00
7:50 AM,33.8,28.4,81,29.81,9.0,NNW,11.5,21.9,0.00,,Mostly Cloudy,330,2013-10-23 11:50:00
7:53 AM,33.1,27.0,78,29.85,10.0,NNW,13.8,21.9,0.00,,Mostly Cloudy,330,2013-10-23 11:53:00
8:36 AM,33.8,26.6,75,29.82,10.0,NNW,10.4,-,N/A,,Mostly Cloudy,330,2013-10-23 12:36:00
8:53 AM,34.0,25.0,70,29.86,10.0,NNW,11.5,20.7,N/A,,Overcast,330,2013-10-23 12:53:00
9:15 AM,35.6,24.8,65,29.83,10.0,NNW,8.1,-,N/A,,Mostly Cloudy,340,2013-10-23 13:15:00
9:32 AM,33.8,24.8,70,29.83,10.0,NNW,9.2,-,N/A,,Overcast,330,2013-10-23 13:32:00
9:53 AM,35.1,26.1,70,29.87,10.0,NNW,10.4,-,N/A,,Overcast,330,2013-10-23 13:53:00
10:19 AM,35.6,26.6,70,29.83,10.0,NNW,11.5,-,N/A,,Overcast,330,2013-10-23 14:19:00
10:53 AM,35.1,26.1,70,29.87,10.0,NW,16.1,-,N/A,,Overcast,320,2013-10-23 14:53:00
11:03 AM,35.6,26.6,70,29.83,10.0,NNW,17.3,23.0,N/A,,Overcast,340,2013-10-23 15:03:00
11:25 AM,35.6,26.6,70,29.83,10.0,NW,16.1,-,N/A,,Overcast,320,2013-10-23 15:25:00
11:51 AM,35.6,24.8,65,29.84,10.0,NW,16.1,23.0,N/A,,Overcast,320,2013-10-23 15:51:00
11:53 AM,36.0,25.0,64,29.88,10.0,NW,13.8,23.0,N/A,,Overcast,320,2013-10-23 15:53:00
12:11 PM,35.6,24.8,65,29.84,10.0,NW,15.0,24.2,N/A,,Overcast,320,2013-10-23 16:11:00
12:53 PM,37.0,26.1,65,29.88,10.0,NW,11.5,20.7,N/A,,Mostly Cloudy,320,2013-10-23 16:53:00
1:09 PM,35.6,24.8,65,29.84,10.0,NW,19.6,23.0,N/A,,Overcast,310,2013-10-23 17:09:00
1:45 PM,35.6,24.8,65,29.84,10.0,WNW,15.0,-,N/A,,Overcast,300,2013-10-23 17:45:00
1:53 PM,36.0,25.0,64,29.88,10.0,NW,16.1,-,N/A,,Overcast,310,2013-10-23 17:53:00
2:12 PM,37.4,24.8,60,29.84,10.0,WNW,17.3,25.3,N/A,,Overcast,290,2013-10-23 18:12:00
2:53 PM,35.1,24.1,64,29.88,10.0,WNW,16.1,23.0,N/A,,Overcast,290,2013-10-23 18:53:00
3:53 PM,36.0,24.1,62,29.88,10.0,NW,19.6,24.2,0.00,,Overcast,310,2013-10-23 19:53:00
4:25 PM,33.8,28.4,81,29.85,1.8,NW,18.4,24.2,0.00,Snow,Light Snow,310,2013-10-23 20:25:00
4:39 PM,33.8,28.4,81,29.85,0.8,WNW,18.4,27.6,0.00,Snow,Light Snow,300,2013-10-23 20:39:00
4:50 PM,33.8,28.4,81,29.85,1.5,WNW,16.1,-,0.00,Snow,Light Snow,300,2013-10-23 20:50:00
4:53 PM,33.1,28.9,85,29.89,2.0,NW,17.3,-,0.00,Snow,Light Snow,310,2013-10-23 20:53:00
5:00 PM,33.8,28.4,81,29.85,1.8,WNW,16.1,-,0.00,Snow,Light Snow,300,2013-10-23 21:00:00
5:02 PM,33.8,28.4,81,29.85,2.0,WNW,15.0,-,0.00,Snow,Light Snow,300,2013-10-23 21:02:00
5:07 PM,33.8,28.4,81,29.86,5.0,WNW,16.1,-,0.01,Snow,Light Snow,300,2013-10-23 21:07:00
5:42 PM,33.8,28.4,81,29.86,9.0,WNW,13.8,-,0.01,,Overcast,290,2013-10-23 21:42:00
5:53 PM,34.0,28.0,79,29.90,10.0,WNW,13.8,-,0.01,,Overcast,300,2013-10-23 21:53:00
6:38 PM,33.8,28.4,81,29.87,1.8,WNW,17.3,-,0.00,Snow,Light Snow,300,2013-10-23 22:38:00
6:53 PM,33.1,28.0,82,29.91,0.8,NW,20.7,25.3,0.00,Snow,Light Snow,310,2013-10-23 22:53:00
7:06 PM,33.8,28.4,81,29.88,2.0,WNW,15.0,-,0.00,Snow,Light Snow,290,2013-10-23 23:06:00
7:25 PM,33.8,28.4,81,29.88,8.0,WNW,13.8,-,0.00,,Overcast,300,2013-10-23 23:25:00
7:35 PM,33.8,28.4,81,29.88,2.0,NNW,19.6,27.6,0.00,Snow,Light Snow,330,2013-10-23 23:35:00
7:41 PM,33.8,28.4,81,29.88,1.0,NW,17.3,27.6,0.00,Snow,Light Snow,310,2013-10-23 23:41:00
7:47 PM,33.8,28.4,81,29.88,2.5,NW,16.1,-,0.01,Snow,Light Snow,320,2013-10-23 23:47:00
7:53 PM,34.0,27.0,75,29.92,7.0,NW,16.1,-,0.01,Snow,Light Snow,320,2013-10-23 23:53:00
8:11 PM,33.8,26.6,75,29.89,10.0,NW,13.8,-,0.00,,Overcast,310,2013-10-24 00:11:00
8:53 PM,34.0,26.1,73,29.93,10.0,NW,13.8,-,0.00,,Overcast,310,2013-10-24 00:53:00
9:19 PM,33.8,26.6,75,29.89,1.8,NNW,15.0,24.2,0.00,Snow,Light Snow,330,2013-10-24 01:19:00
9:27 PM,33.8,28.4,81,29.89,3.0,NW,15.0,-,0.00,Snow,Light Snow,320,2013-10-24 01:27:00
9:47 PM,33.8,28.4,81,29.89,1.5,NW,12.7,-,0.01,Snow,Light Snow,310,2013-10-24 01:47:00
9:53 PM,33.1,28.9,85,29.93,0.8,NW,12.7,-,0.01,Snow,Light Snow,310,2013-10-24 01:53:00
10:03 PM,33.8,28.4,81,29.89,1.2,NW,12.7,-,0.01,Snow,Light Snow,310,2013-10-24 02:03:00
10:09 PM,33.8,28.4,81,29.89,3.0,NW,10.4,-,0.01,Snow,Light Snow,310,2013-10-24 02:09:00
10:23 PM,33.8,28.4,81,29.89,2.5,NW,11.5,-,0.01,Snow,Light Snow,310,2013-10-24 02:23:00
10:34 PM,33.8,28.4,81,29.89,4.0,NW,11.5,-,0.01,Snow,Light Snow,310,2013-10-24 02:34:00
10:53 PM,33.1,28.9,85,29.93,4.0,WNW,13.8,-,0.01,Snow,Light Snow,300,2013-10-24 02:53:00
11:53 PM,34.0,27.0,75,29.93,6.0,NW,10.4,-,0.01,Snow,Light Snow,320,2013-10-24 03:53:00